Weather History for Xi'An, SA

Change the Weather History Date:

Monday, December 30, 2013

  Actual Average Record
Temperature  
Mean Temperature 36 °F -  
Max Temperature 50 °F 39 °F 57 °F (2014)
Min Temperature 23 °F 23 °F 8 °F (2012)
Degree Days  
Heating Degree Days 28    
Moisture  
Dew Point 9 °F    
Average Humidity 39    
Maximum Humidity 64    
Minimum Humidity 16    
Precipitation  
Precipitation 0.00 in - - ()
Sea Level Pressure  
Sea Level Pressure 30.30 in    
Wind  
Wind Speed 6 mph ()    
Max Wind Speed 13 mph    
Max Gust Speed -    
Visibility 3.1 miles    
Events      
Averages and records for this station are not official NWS values.
T = Trace of Precipitation, MM = Missing Value Source: Averaged Metar Reports

Daily Weather History Graph

Daily Weather History Graph

Search for Another Location

Airport:

Trip Planner

Search our weather history database for the weather conditions in past years. The results will help you decide how hot, cold, wet, or windy it might be!

Date:

Astronomy

Dec. 30, 2013 Rise Set
Actual Time 7:51 AM CST 5:43 PM CST
Civil Twilight 7:23 AM CST 6:11 PM CST
Nautical Twilight 6:51 AM CST 6:43 PM CST
Astronomical Twilight 6:21 AM CST 7:13 PM CST
Moon 5:07 AM CST (12/30) 3:43 PM CST (12/30)
Length of Visible Light 10h 48m
Length of Day
9h 52m
Waning Crescent, 8% of the Moon is Illuminated
Dec 30
Waning Crescent
Jan 1
New
Jan 8
First Quarter
Jan 16
Full
Jan 24
Last Quarter

Hourly Weather History & Observations

Time (CST) Temp. Windchill Dew Point Humidity Pressure Visibility Wind Dir Wind Speed Gust Speed Precip Events Conditions
12:00 AM 24.8 °F 19.2 °F 14.0 °F 64% 30.33 in 2.2 mi WSW 4.5 mph - N/A   Haze
1:00 AM 28.4 °F 21.4 °F 14.0 °F 55% 30.33 in 3.1 mi SSW 6.7 mph - N/A   Haze
2:00 AM 24.8 °F 17.1 °F 14.0 °F 64% 30.33 in 2.2 mi SW 6.7 mph - N/A   Haze
3:00 AM 24.8 °F 15.5 °F 14.0 °F 64% 30.33 in 2.2 mi WSW 8.9 mph - N/A   Haze
4:00 AM 23.0 °F - 12.2 °F 63% 30.33 in 3.1 mi SW 2.2 mph - N/A   Haze
5:00 AM 32.0 °F 25.7 °F 6.8 °F 35% 30.30 in - West 6.7 mph - N/A   Clear
6:00 AM 26.6 °F 19.2 °F 8.6 °F 47% 30.33 in - West 6.7 mph - N/A   Clear
7:00 AM 28.4 °F 21.4 °F 6.8 °F 40% 30.33 in - West 6.7 mph - N/A   Clear
8:00 AM 30.2 °F 23.5 °F 6.8 °F 37% 30.36 in - West 6.7 mph - N/A   Clear
9:00 AM 33.8 °F - 6.8 °F 32% 30.36 in - WSW 2.2 mph - N/A   Clear
10:00 AM 39.2 °F 34.4 °F 5.0 °F 24% 30.36 in - WNW 6.7 mph - N/A   Clear
11:00 AM 44.6 °F 39.8 °F 5.0 °F 20% 30.36 in - West 8.9 mph - N/A   Clear
12:00 PM 46.4 °F 41.2 °F 3.2 °F 17% 30.33 in - WSW 11.2 mph - N/A   Clear
1:00 PM 48.2 °F - 3.2 °F 16% 30.30 in - WNW 11.2 mph - N/A   Clear
2:00 PM 50.0 °F - 8.6 °F 19% 30.24 in - WSW 8.9 mph - N/A   Clear
3:00 PM 50.0 °F - 12.2 °F 22% 30.24 in - SW 13.4 mph - N/A   Clear
4:00 PM 50.0 °F - 10.4 °F 20% 30.21 in - SW 8.9 mph - N/A   Clear
5:00 PM 46.4 °F 43.0 °F 8.6 °F 22% 30.21 in - SSW 6.7 mph - N/A   Clear
6:00 PM 37.4 °F - 8.6 °F 30% 30.24 in - WSW 2.2 mph - N/A   Clear
7:00 PM 32.0 °F 27.6 °F 12.2 °F 44% 30.24 in - SW 4.5 mph - N/A   Clear
8:00 PM 24.8 °F 19.2 °F 10.4 °F 54% 30.27 in - WSW 4.5 mph - N/A   Clear
9:00 PM 26.6 °F 21.3 °F 10.4 °F 51% 30.27 in - West 4.5 mph - N/A   Clear
10:00 PM 30.2 °F 25.5 °F 10.4 °F 44% 30.27 in 4.3 mi West 4.5 mph - N/A   Unknown
11:00 PM 30.2 °F 22.1 °F 10.4 °F 44% 30.27 in 4.3 mi West 8.9 mph - N/A   Unknown